Weather History for Wendover, UT

Change the Weather History Date:

Saturday, October 6, 2012

  Actual Average Record
Temperature  
Mean Temperature 49 °F -  
Max Temperature 59 °F 66 °F 83 °F (1960)
Min Temperature 39 °F 45 °F 33 °F (2013)
Degree Days  
Heating Degree Days 16    
Moisture  
Dew Point 13 °F    
Average Humidity 23    
Maximum Humidity 34    
Minimum Humidity 16    
Precipitation  
Precipitation 0.00 in - - ()
Sea Level Pressure  
Sea Level Pressure 30.18 in    
Wind  
Wind Speed 6 mph (East)    
Max Wind Speed 10 mph    
Max Gust Speed -    
Visibility 10 miles    
Events      
Averages and records for this station are not official NWS values.
T = Trace of Precipitation, MM = Missing Value Source: NWS Daily Summary

Daily Weather History Graph

Daily Weather History Graph

Search for Another Location

Airport:

Trip Planner

Search our weather history database for the weather conditions in past years. The results will help you decide how hot, cold, wet, or windy it might be!

Date:

Astronomy

Oct. 06, 2012 Rise Set
Actual Time 7:38 AM MDT 7:09 PM MDT
Civil Twilight 7:11 AM MDT 7:36 PM MDT
Nautical Twilight 6:39 AM MDT 8:08 PM MDT
Astronomical Twilight 6:07 AM MDT 8:39 PM MDT
Moon 11:26 PM MDT (10/6) 1:37 PM MDT (10/6)
Length of Visible Light 12h 25m
Length of Day
11h 30m
Waning Gibbous, 65% of the Moon is Illuminated
Oct 6
Waning Gibbous
Oct 8
Last Quarter
Oct 15
New
Oct 21
First Quarter
Oct 29
Full

Hourly Weather History & Observations

Time (MDT) Temp. Windchill Dew Point Humidity Pressure Visibility Wind Dir Wind Speed Gust Speed Precip Events Conditions
12:15 AM 53.6 °F - 12.2 °F 19% 30.16 in 10.0 mi North 9.2 mph - N/A   Clear
12:35 AM 53.6 °F - 12.2 °F 19% 30.16 in 10.0 mi NE 9.2 mph - N/A   Clear
12:55 AM 53.6 °F - 12.2 °F 19% 30.16 in 10.0 mi NE 10.4 mph - N/A   Clear
1:35 AM 51.8 °F - 10.4 °F 19% 30.18 in 10.0 mi Calm Calm - N/A   Clear
2:15 AM 50.0 °F - 12.2 °F 22% 30.19 in 10.0 mi South 3.5 mph - N/A   Clear
2:55 AM 50.0 °F - 12.2 °F 22% 30.20 in 10.0 mi Calm Calm - N/A   Clear
3:35 AM 46.4 °F 44.3 °F 12.2 °F 25% 30.20 in 10.0 mi NNW 4.6 mph - N/A   Clear
3:55 AM 46.4 °F 44.3 °F 12.2 °F 25% 30.19 in 10.0 mi NNE 4.6 mph - N/A   Clear
4:15 AM 44.6 °F 43.1 °F 12.2 °F 27% 30.19 in 10.0 mi NE 3.5 mph - N/A   Clear
4:35 AM 44.6 °F 43.1 °F 14.0 °F 29% 30.19 in 10.0 mi WNW 3.5 mph - N/A   Clear
5:15 AM 44.6 °F 39.7 °F 12.2 °F 27% 30.19 in 10.0 mi SSE 9.2 mph - N/A   Clear
5:35 AM 42.8 °F 37.5 °F 12.2 °F 29% 30.19 in 10.0 mi ESE 9.2 mph - N/A   Clear
5:55 AM 42.8 °F 37.0 °F 15.8 °F 34% 30.21 in 10.0 mi ENE 10.4 mph - N/A   Clear
6:55 AM 42.8 °F 39.3 °F 10.4 °F 27% 30.22 in 10.0 mi WSW 5.8 mph - N/A   Clear
7:15 AM 41.0 °F 36.4 °F 10.4 °F 29% 30.22 in 10.0 mi WSW 6.9 mph - N/A   Clear
7:35 AM 39.2 °F 35.0 °F 10.4 °F 31% 30.23 in 10.0 mi West 5.8 mph - N/A   Clear
7:55 AM 39.2 °F - 12.2 °F 33% 30.23 in 10.0 mi Calm Calm - N/A   Clear
8:35 AM 39.2 °F 37.0 °F 12.2 °F 33% 30.24 in 10.0 mi ESE 3.5 mph - N/A   Clear
8:55 AM 42.8 °F 41.1 °F 12.2 °F 29% 30.24 in 10.0 mi ESE 3.5 mph - N/A   Clear
9:15 AM 44.6 °F 43.1 °F 12.2 °F 27% 30.25 in 10.0 mi SSW 3.5 mph - N/A   Clear
9:35 AM 46.4 °F 45.2 °F 12.2 °F 25% 30.25 in 10.0 mi SW 3.5 mph - N/A   Clear
10:15 AM 51.8 °F - 15.8 °F 24% 30.25 in 10.0 mi NNE 10.4 mph - N/A   Clear
10:35 AM 51.8 °F - 14.0 °F 22% 30.25 in 10.0 mi NNE 10.4 mph - N/A   Clear
11:15 AM 51.8 °F - 14.0 °F 22% 30.24 in 10.0 mi NE 6.9 mph - N/A   Clear
11:35 AM 53.6 °F - 14.0 °F 21% 30.23 in 10.0 mi ENE 10.4 mph - N/A   Clear
11:55 AM 53.6 °F - 14.0 °F 21% 30.23 in 10.0 mi ENE 5.8 mph - N/A   Clear
12:15 PM 55.4 °F - 14.0 °F 20% 30.22 in 10.0 mi East 6.9 mph - N/A   Clear
12:55 PM 55.4 °F - 15.8 °F 21% 30.21 in 10.0 mi SE 8.1 mph - N/A   Clear
1:15 PM 55.4 °F - 15.8 °F 21% 30.21 in 10.0 mi ESE 8.1 mph - N/A   Clear
1:35 PM 57.2 °F - 15.8 °F 20% 30.20 in 10.0 mi ESE 6.9 mph - N/A   Clear
2:15 PM 57.2 °F - 15.8 °F 20% 30.18 in 10.0 mi SSE 9.2 mph - N/A   Clear
2:35 PM 57.2 °F - 15.8 °F 20% 30.17 in 10.0 mi SE 8.1 mph - N/A   Clear
2:55 PM 57.2 °F - 15.8 °F 20% 30.16 in 10.0 mi SSE 5.8 mph - N/A   Clear
3:35 PM 57.2 °F - 15.8 °F 20% 30.15 in 10.0 mi SE 6.9 mph - N/A   Clear
3:55 PM 57.2 °F - 15.8 °F 20% 30.15 in 10.0 mi SE 6.9 mph - N/A   Clear
4:15 PM 59.0 °F - 14.0 °F 17% 30.14 in 10.0 mi SSE 4.6 mph - N/A   Clear
4:35 PM 59.0 °F - 14.0 °F 17% 30.14 in 10.0 mi Calm Calm - N/A   Clear
5:15 PM 59.0 °F - 14.0 °F 17% 30.13 in 10.0 mi ESE 8.1 mph - N/A   Clear
5:35 PM 59.0 °F - 12.2 °F 16% 30.12 in 10.0 mi ESE 5.8 mph - N/A   Clear
6:15 PM 57.2 °F - 12.2 °F 17% 30.12 in 10.0 mi East 4.6 mph - N/A   Clear
6:35 PM 57.2 °F - 12.2 °F 17% 30.13 in 10.0 mi ESE 5.8 mph - N/A   Clear
6:55 PM 57.2 °F - 12.2 °F 17% 30.13 in 10.0 mi East 5.8 mph - N/A   Clear
7:15 PM 55.4 °F - 12.2 °F 18% 30.13 in 10.0 mi East 3.5 mph - N/A   Clear
7:35 PM 53.6 °F - 12.2 °F 19% 30.13 in 10.0 mi ENE 3.5 mph - N/A   Clear
7:55 PM 53.6 °F - 12.2 °F 19% 30.13 in 10.0 mi NNE 3.5 mph - N/A   Clear
8:15 PM 51.8 °F - 15.8 °F 24% 30.14 in 10.0 mi NNE 4.6 mph - N/A   Clear
8:55 PM 48.2 °F - 17.6 °F 30% 30.14 in 10.0 mi West 6.9 mph - N/A   Clear
9:15 PM 48.2 °F - 12.2 °F 24% 30.15 in 10.0 mi WNW 5.8 mph - N/A   Clear
9:35 PM 50.0 °F - 12.2 °F 22% 30.15 in 10.0 mi WNW 5.8 mph - N/A   Clear
9:55 PM 46.4 °F 45.2 °F 14.0 °F 27% 30.16 in 10.0 mi ENE 3.5 mph - N/A   Clear
10:15 PM 46.4 °F - 17.6 °F 32% 30.16 in 10.0 mi Calm Calm - N/A   Clear
10:35 PM 48.2 °F - 14.0 °F 25% 30.16 in 10.0 mi Calm Calm - N/A   Clear
10:55 PM 46.4 °F 45.2 °F 15.8 °F 29% 30.17 in 10.0 mi West 3.5 mph - N/A   Clear
11:35 PM 44.6 °F 43.1 °F 14.0 °F 29% 30.17 in 10.0 mi WNW 3.5 mph - N/A   Clear